Theta_e
348 348 347 345 349 347 349 348 347 345 345 343 340 338 338 343 347 343 345 348 347 351 351 349 350 351 348 343 343 349 349 349 348 349 346 347 349 349 349 350 348 343 344
347 347 349 350 351 350 348 349 345 341 340 339 338 339 342 346 347 346 347 347 348 352 352 352 351 351 349 345 345 348 343 348 348 347 344 344 348 345 349 349 347 345 348
346 346 347 349 351 350 348 343 343 341 340 344 342 342 345 348 350 351 349 349 352 352 351 352 352 351 350 347 348 346 343 343 344 344 341 339 346 347 350 348 345 347 348
345 346 347 348 349 350 345 343 344 344 347 348 345 348 351 352 352 352 352 352 352 350 348 351 352 351 347 344 347 346 344 345 345 345 342 342 346 348 348 347 345 345 346
345 345 348 347 348 350 346 348 345 350 349 348 346 346 350 352 352 352 352 352 352 348 347 349 348 349 345 342 344 346 344 347 349 349 343 344 344 348 348 348 346 348 347
345 343 347 345 350 349 350 350 346 344 345 347 348 347 351 352 352 352 350 350 353 349 349 346 345 345 345 342 342 344 344 345 343 343 342 342 343 347 347 348 345 347 347
344 345 346 345 346 348 348 347 346 346 344 348 347 349 347 351 351 345 347 348 349 350 352 346 343 341 343 343 343 346 345 346 342 340 340 338 345 347 350 349 346 347 344
344 348 349 347 343 344 351 348 343 345 347 345 347 346 342 345 341 343 345 346 348 351 349 347 344 343 342 342 343 346 346 346 343 344 337 339 345 349 349 348 346 347 345
346 351 351 349 349 349 350 349 345 344 346 344 346 343 343 341 339 343 346 346 346 345 347 346 345 344 343 343 344 346 345 345 342 341 340 340 343 349 347 348 347 347 345
347 350 350 351 352 350 350 351 347 342 341 343 342 340 338 336 343 349 350 346 344 345 345 343 344 345 347 348 346 345 338 342 333 340 344 337 337 346 346 347 346 346 346
348 349 349 350 352 349 349 350 347 342 341 337 334 336 337 342 347 349 348 346 346 346 344 344 346 347 349 349 347 347 344 339 337 341 346 338 340 344 343 347 347 346 345
352 350 348 350 351 348 344 348 340 338 334 332 334 337 341 345 349 351 350 348 348 349 351 347 344 344 347 349 349 348 343 344 332 342 345 343 340 349 348 347 348 343 344
351 351 349 348 348 342 340 339 336 333 332 332 336 348 350 350 350 350 349 349 348 349 348 347 349 346 348 348 349 349 344 345 342 336 343 344 342 347 347 348 347 346 346
352 350 348 348 346 340 335 334 333 334 334 338 346 350 351 352 351 351 349 350 350 347 349 349 348 346 348 348 349 349 346 345 343 342 345 343 343 344 349 346 346 346 346
353 352 350 350 350 348 344 336 333 340 342 348 348 349 350 351 351 352 351 350 350 350 350 350 348 347 348 348 346 344 343 345 345 343 343 342 341 342 346 349 345 346 346
352 352 351 351 352 350 350 347 342 348 349 349 350 350 352 349 351 351 351 349 351 349 350 350 348 348 346 350 344 346 341 343 342 343 344 341 341 340 341 343 349 348 346
349 350 350 350 350 350 351 350 350 352 352 351 351 351 352 349 349 348 348 348 347 349 350 347 349 347 347 341 337 340 338 337 338 339 339 343 342 340 339 341 342 344 346
349 351 351 350 348 350 349 351 354 352 350 350 350 351 351 349 350 349 349 348 351 352 351 349 347 347 341 338 335 336 334 335 336 336 338 339 340 342 340 340 339 340 341
350 351 352 351 350 350 352 353 352 351 350 351 350 351 351 352 351 351 350 350 350 352 351 349 348 344 339 336 335 337 335 337 339 339 338 339 338 341 343 341 340 339 339
348 350 351 352 351 352 353 350 350 349 348 351 352 350 351 349 351 351 350 349 351 349 350 347 346 341 334 338 338 336 337 338 340 338 339 341 341 342 346 343 341 341 342
348 351 352 352 350 349 347 347 347 348 347 351 352 349 351 351 351 351 350 351 352 351 349 348 344 341 336 338 333 334 339 338 339 339 339 340 341 346 344 343 344 345 344
349 352 352 352 351 350 351 348 347 348 349 349 352 352 352 353 352 352 350 350 351 350 348 346 339 333 337 338 335 337 335 338 337 335 335 337 342 343 342 340 337 341 341
348 351 351 352 353 352 352 351 351 350 354 355 354 353 352 352 352 352 349 348 350 350 349 345 333 336 339 340 335 338 334 336 339 336 334 341 341 340 335 330 330 339 340
349 350 350 351 351 354 353 353 353 354 355 352 351 352 350 351 352 353 350 348 348 351 348 345 337 336 337 339 338 336 334 335 335 335 335 333 334 336 333 329 327 329 330
348 350 350 350 352 353 354 354 353 353 352 348 351 356 353 352 353 352 351 351 350 347 346 338 339 338 336 336 339 337 337 336 332 333 332 334 333 332 332 331 328 327 327
348 350 351 351 353 353 354 354 354 354 353 350 353 353 354 353 353 349 350 350 349 341 339 338 338 335 340 338 337 338 334 334 335 334 328 330 332 332 330 329 329 327 327
Wind_Speed
21 22 23 24 24 27 26 27 29 30 29 27 26 24 23 22 19 18 17 14 13 14 13 12 10 9 8 10 11 12 12 12 13 13 12 11 12 12 11 13 14 13 14
22 23 23 23 25 26 25 26 27 27 26 25 23 22 21 20 19 17 15 12 12 12 12 11 10 9 8 10 10 10 10 11 12 11 11 10 8 10 13 12 12 14 14
26 23 23 25 24 25 25 26 25 25 24 22 21 21 19 18 17 15 13 11 10 10 10 9 8 8 7 8 8 9 8 9 10 10 10 10 9 14 14 12 12 12 14
28 25 24 24 25 24 25 25 23 23 22 20 18 18 17 15 14 12 11 10 10 10 9 8 7 7 6 8 8 7 7 8 8 7 10 11 8 11 13 12 12 12 12
28 25 24 25 25 24 25 23 22 21 21 19 17 16 15 14 12 11 10 10 9 10 9 6 6 6 6 7 8 7 9 9 5 6 10 10 12 12 13 12 12 12 13
29 27 23 25 24 24 23 21 20 19 18 16 15 14 13 12 11 10 9 8 8 8 7 6 6 6 6 8 8 8 10 10 8 12 13 10 15 13 12 14 11 10 12
30 26 24 25 25 24 22 20 19 17 16 15 14 12 12 11 9 8 7 7 6 6 5 6 7 6 7 8 8 11 10 11 12 11 9 11 15 14 14 14 13 12 12
30 27 25 24 25 23 20 20 19 16 15 14 13 12 11 10 9 8 7 5 4 4 4 5 6 7 7 8 10 10 7 8 8 13 11 12 14 15 13 14 14 14 12
28 28 26 23 22 21 20 19 18 16 15 14 13 11 9 8 7 7 5 5 3 4 4 5 5 6 7 8 9 9 6 8 11 14 9 12 14 15 14 14 14 15 14
29 27 27 25 23 23 21 19 18 16 15 14 11 10 9 7 6 6 4 3 5 4 5 5 5 6 6 7 6 5 2 9 7 8 10 12 12 13 15 15 13 13 13
27 28 27 26 24 23 22 19 18 16 15 13 11 9 8 4 5 6 4 1 4 6 7 7 6 5 3 4 2 2 4 7 7 8 10 13 13 14 13 14 14 14 13
27 29 28 27 25 24 23 21 19 17 16 13 11 10 9 5 3 6 5 1 2 4 6 4 3 4 4 6 2 1 8 3 8 7 7 13 13 13 13 13 14 13 14
34 31 30 29 26 26 25 22 19 18 16 14 14 11 8 5 4 8 8 4 1 2 4 4 4 4 3 3 2 1 4 3 4 5 7 10 11 13 13 13 14 12 12
32 33 31 30 29 28 25 24 21 20 18 17 16 13 11 6 5 7 10 6 4 1 2 4 3 2 1 2 3 1 1 4 7 8 10 9 10 11 13 13 14 14 14
30 34 33 33 32 28 27 25 21 20 21 18 16 15 13 10 7 8 9 6 3 3 2 4 1 1 1 2 4 4 2 2 8 4 10 8 8 8 11 13 14 15 15
33 33 34 34 33 31 28 24 21 21 20 19 20 16 15 13 6 5 8 4 2 2 3 2 3 1 2 1 1 1 2 2 6 8 10 9 8 6 10 12 15 15 16
35 38 37 36 34 34 31 26 17 19 25 25 22 20 17 15 11 9 8 6 3 2 3 2 1 0 2 3 2 5 5 2 7 9 9 11 12 8 7 11 14 14 15
34 36 39 38 36 35 32 26 19 13 13 16 17 20 22 17 12 8 6 6 5 3 5 4 1 2 5 3 1 4 6 6 5 10 8 7 11 14 11 8 10 11 11
36 40 40 38 38 36 33 29 23 17 14 12 12 16 22 19 13 9 6 6 3 6 4 4 3 2 0 2 1 6 5 4 2 6 11 8 7 11 14 10 7 7 8
39 42 43 40 40 38 35 30 26 20 19 14 15 16 18 18 16 10 7 7 6 7 6 5 7 1 2 2 2 2 1 4 6 7 10 10 8 9 12 11 9 8 6
36 41 41 41 43 41 34 28 26 23 22 20 17 17 18 17 17 14 10 11 10 8 9 10 7 3 3 1 1 2 5 4 10 16 17 13 11 13 12 11 6 10 8
38 40 40 45 45 43 36 32 27 26 23 22 19 18 17 20 20 17 12 13 14 10 10 10 6 7 5 4 2 2 3 4 7 10 12 13 15 15 12 8 5 8 9
38 40 43 45 45 44 39 34 29 25 24 24 23 22 24 20 23 19 15 13 11 11 15 11 7 10 7 6 3 4 2 3 3 6 10 18 16 12 10 7 7 9 8
40 43 44 45 44 41 41 38 34 29 28 30 28 23 22 23 23 19 17 14 10 14 15 13 11 11 8 7 4 2 3 5 3 1 5 11 11 12 11 10 7 8 8
41 41 45 47 45 42 41 40 39 34 32 26 23 20 25 25 23 21 18 17 14 16 18 15 13 11 10 7 4 6 4 3 3 3 2 2 8 11 11 10 9 8 7
39 39 39 42 42 44 43 43 42 39 33 29 27 20 25 28 25 22 22 21 19 18 19 16 14 12 11 8 4 7 5 3 3 3 2 1 4 8 13 11 13 13 11
Wind_Direction
129 130 130 132 128 127 126 124 121 124 122 121 119 118 115 111 109 103 100 98 91 90 89 84 85 88 90 92 100 98 96 95 96 93 89 101 108 114 119 115 116 108 106
137 132 129 129 131 131 131 127 122 121 120 115 114 114 113 115 112 109 106 103 93 90 90 89 85 80 79 88 99 97 102 106 97 90 85 102 103 121 123 118 119 113 115
139 136 131 132 133 134 134 129 125 121 117 113 114 115 117 114 111 110 108 102 94 86 80 78 77 81 82 91 98 103 99 89 96 103 86 109 96 106 119 119 116 118 113
145 141 137 138 137 138 135 131 126 120 118 116 117 119 118 117 113 114 113 106 92 78 65 65 64 66 72 85 91 97 98 80 88 113 107 100 111 115 121 125 124 120 119
150 148 143 145 144 140 140 135 129 126 127 127 124 123 121 120 119 114 109 100 92 81 70 58 72 69 65 73 76 80 80 81 78 161 144 138 133 125 127 130 121 126 119
151 152 150 150 146 145 144 141 136 135 132 127 125 125 126 124 119 112 108 100 88 80 71 56 70 79 73 70 76 79 85 79 90 124 147 153 143 139 137 135 128 131 118
154 154 153 153 152 150 149 146 143 140 140 136 132 132 131 125 118 108 108 100 92 85 79 67 72 81 81 76 75 85 89 100 114 149 150 148 147 143 143 137 134 135 128
155 156 155 156 157 156 152 154 151 148 146 142 141 141 136 129 116 105 96 83 80 78 79 78 72 80 83 89 85 93 110 113 129 161 164 155 153 150 148 145 139 141 139
159 157 156 157 157 157 162 160 159 158 152 153 153 148 142 132 129 114 92 66 76 87 79 82 80 77 87 89 78 92 100 128 124 145 151 168 165 162 156 151 148 146 146
161 160 160 161 163 167 169 164 168 167 163 163 163 161 149 151 133 109 100 68 56 94 88 93 101 98 87 83 107 102 76 176 162 155 151 176 169 173 163 158 154 154 155
165 166 165 164 171 171 171 168 174 172 172 171 173 166 162 156 179 163 118 73 87 93 104 99 78 75 95 96 101 54 17 178 149 152 166 171 176 178 171 168 162 159 162
168 173 173 173 174 175 176 174 179 177 179 178 176 174 177 168 176 186 165 182 262 129 92 105 54 24 72 91 180 349 45 31 135 147 169 178 184 188 184 175 171 167 165
174 175 179 179 180 181 181 180 182 187 190 188 184 189 184 173 196 201 180 201 137 157 111 113 67 72 51 40 181 184 16 106 127 181 164 170 186 191 188 187 177 179 174
175 177 179 182 183 187 186 189 191 195 195 191 188 195 198 205 211 206 201 123 146 127 76 121 94 47 55 347 16 90 104 117 129 155 161 165 190 193 190 192 191 191 187
180 179 180 182 186 187 191 198 202 200 201 196 199 204 208 214 206 178 168 178 177 164 197 142 66 320 258 63 46 31 100 155 157 163 162 151 172 196 201 203 197 196 198
182 184 184 187 189 188 192 199 202 208 213 214 213 208 215 216 199 186 169 176 156 214 131 92 305 30 110 22 18 306 257 187 180 172 189 174 167 188 200 208 207 203 206
187 185 189 192 194 195 198 203 206 228 237 230 233 219 209 210 215 227 231 234 286 223 194 215 343 13 343 112 114 208 232 195 208 202 213 201 189 198 199 210 216 212 210
187 185 190 195 197 200 204 192 196 186 172 190 191 209 207 207 214 222 238 227 207 245 203 195 240 83 84 95 45 9 213 228 203 217 200 203 211 202 198 192 203 217 224
190 188 191 193 198 201 193 197 204 199 194 189 179 188 198 207 223 221 229 197 223 206 197 265 202 163 125 244 210 357 194 227 102 183 198 199 225 219 206 190 185 203 213
194 193 193 191 197 196 201 210 213 213 213 218 213 214 211 215 216 212 205 200 192 210 218 204 188 196 150 354 88 274 115 159 135 154 156 128 132 186 192 194 192 206 219
191 190 189 189 197 201 203 204 208 212 214 220 228 226 218 212 213 217 215 204 198 214 218 201 184 220 183 299 68 263 122 103 138 122 134 131 129 150 164 173 205 204 188
189 190 186 193 198 202 203 203 203 207 210 219 223 228 234 222 213 218 217 217 218 215 190 177 209 182 189 183 183 126 35 98 133 138 134 139 147 150 150 145 162 170 168
189 187 188 192 197 201 203 203 203 207 214 220 227 231 239 227 222 213 218 215 203 208 189 194 189 182 181 178 190 157 96 197 169 145 125 145 151 156 150 141 141 168 166
194 193 191 194 198 198 201 200 199 202 214 226 232 238 225 221 213 217 214 209 212 197 199 204 197 191 192 177 183 178 148 136 151 37 161 158 174 177 175 167 167 166 165
192 193 195 195 198 199 200 201 201 205 215 224 224 239 220 211 211 212 215 207 200 198 201 200 201 203 201 186 184 178 152 140 124 128 220 213 206 217 211 206 197 196 192
195 193 193 192 194 199 199 201 203 206 213 219 224 235 218 204 203 207 205 201 199 196 197 201 203 206 206 196 170 191 169 157 183 134 110 244 252 242 223 226 219 212 217